STARLINK-1067 (44771 NORAD) Tracking and Keplerian Element Data

This shows tracking and keplerian element data for the satellite.

Feedback or suggestion? Click here.




ElementValue
Catalog44771
NameSTARLINK-1067
Epoch Orbit1035
Epoch Day17.91667824
Epoch Year2020
RAAN214.6245
Inclination53.0055
Eccentricity0.0001573
Argument of Perigee88.4205
Mean Anonmoly319.5761
Mean Motion15.05562571
Decay Rate0.00017348
L11 44771U 19074BL 20017.91667824 .00017348 00000-0 12074-2 0 9996
L22 44771 53.0055 214.6245 0001573 88.4205 319.5761 15.05562571 10358

Live tracking and technical data element details for STARLINK-1067 (NORAD 44771). STARLINK-1067 can be tracked NOW for your location showing map with azimuth and elevation plus other details from your city location.

Track the satellite on the map from your city or location and see movement details for azimuth, elevation, latitude, longitude, range, height, and movement on the map or in text.







IsCatalogInMostPopularTable: catalog: 44771, numindb: 21
Update: records affected: 1



GetName: 44771 STARLINK-1067

Hit Count: updated at: Sat, 18 Jan 2020 17:52:36 GMT